星链-2423 (STARLINK-2423 )

导读 | 豆包AI

STARLINK-2423是美国SpaceX星链计划中的低轨道互联网通信卫星,于2021年3月11日发射升空。作为星链星座组网的组成单元,它旨在为全球偏远地区、高信号需求场景提供高速卫星互联网服务,运行在近地轨道,依托大规模星座部署,提升全球网络覆盖范围与接入稳定性,是星链全球通信布局中的一颗标准组网卫星。

基本信息
目录编号:
47833
目录名称:
STARLINK-2423
国际标识:
2021-018AY
轨道中心:
EARTH
卫星名称:
星链-2423
卫星全名:
星链-2423 (STARLINK-2423 )
卫星状态:
在轨 (已飞行1829 天)
发射日期:
2021-03-11 UTC
国别 :
美国 (US)
星等 :
--
轨道信息
数据来源 国际轨道数据 AOE轨道数据
星历时间 2026-03-13T18:25:55+0800
1天前
查看轨道信息
2026-03-14T08:00:00+0800
13小时前
查看轨道信息
半长轴 6925.329km 6925.336km
偏心率 0.0001446 0.0001449
轨道倾角 53.054° 53.053°
近地点辐角 91.498° 77.211°
升交点赤经 234.806° 232.264°
平近点角 268.617° 110.463°
近地点 546.19km 546.195km
远地点 548.194km 548.203km
周期 95.592分钟 95.592分钟
每日圈数 15.064065 15.064044
详细信息
固有亮度:
5
最大亮度:
2.5
卫星平台:
Starlink V1.0
覆盖范围:
全球
运营商:
太空探索技术公司
运营商所在国:
美国
制造商(研发单位):
太空探索技术公司
制造商所在国:
美国
使用方式:
暂无
卫星简介
星链(Starlink)计划是由太空探索技术公司(SpaceX)提出的一个巨型低轨卫星互联网星座项目,计划在2019年至2024年间在太空搭建由约1.2万颗卫星组成的“星链”网络,其中1584颗将部署在地球上空550千米处的近地轨道,并从2020年开始工作。该卫星仍在工作。
2D轨道图
3D轨道图
轨道高度分析图
轨道倾角分析图
轨道综合分析图
查看轨道综合分析图